Terminal Aerodrome Forecast
Issued by NWS

Home | Current Version | Previous Version | Text Only | Print | Product List | Glossary On
Versions: 1 2 3 4 5 6 7 8 9 10 11 12 13 14 15 16 17 18
000
FTUS44 KMAF 220500
TAFPEQ
TAF
KPEQ 220522Z 2206/2306 12006KT P6SM FEW130 BKN200
     FM221800 12010KT P6SM SCT090 SCT250=

USA.gov is the U.S. government's official web portal to all federal, state and local government web resources and services.